Date,TemperatureHighF,TemperatureAvgF,TemperatureLowF,DewpointHighF,DewpointAvgF,DewpointLowF,HumidityHigh,HumidityAvg,HumidityLow,PressureMaxIn,PressureMinIn,WindSpeedMaxMPH,WindSpeedAvgMPH,GustSpeedMaxMPH,PrecipitationSumIn
2014-1-1,39.1,17.9,7.3,24.9,12.7,3.3,88,80,56,30.46,30.08,11,3,18,0.00
2014-1-2,17.7,9.2,0.8,8.9,2.9,-3.4,85,75,65,30.59,30.45,4,1,9,0.00
2014-1-3,39.9,25.0,5.5,25.8,15.2,-0.7,78,67,55,30.56,29.78,8,2,20,0.02
2014-1-4,38.1,25.8,14.9,29.5,19.8,12.2,90,79,60,30.19,29.77,13,3,21,0.01
2014-1-5,15.0,9.3,-1.3,12.5,1.0,-13.8,90,70,48,30.68,30.15,11,3,20,0.00
2014-1-6,9.1,-1.8,-10.4,-5.8,-11.9,-18.2,84,62,49,30.73,30.54,6,1,14,0.00
2014-1-7,39.1,18.9,-1.7,23.5,10.5,-8.0,89,71,50,30.53,30.17,5,1,10,0.00
2014-1-8,29.5,23.9,17.3,20.2,16.8,13.6,92,75,61,30.43,30.28,6,1,12,0.00
2014-1-9,31.5,23.8,17.3,30.5,20.6,13.6,96,87,77,30.41,30.05,4,1,5,0.00
2014-1-10,40.5,35.6,31.5,38.8,34.4,30.5,97,95,93,30.05,29.58,4,1,7,0.03
2014-1-11,47.5,36.9,30.0,35.5,31.2,27.2,96,81,55,29.95,29.71,6,1,15,0.00
2014-1-12,63.2,46.9,34.9,34.2,31.1,27.8,80,57,32,29.89,29.50,6,2,12,0.00
2014-1-13,49.0,39.3,31.0,35.0,29.7,25.1,95,70,46,29.95,29.70,6,1,12,0.00
2014-1-14,44.6,38.1,25.7,33.4,19.9,7.6,76,50,23,30.31,29.81,10,2,20,0.00
2014-1-15,40.3,29.8,16.9,26.8,16.2,8.7,72,57,44,30.33,29.87,4,1,9,0.00
2014-1-16,48.3,38.7,25.0,30.9,21.5,7.7,83,52,32,30.15,29.84,13,4,28,0.00
2014-1-17,35.5,25.6,18.3,18.3,6.3,-3.4,65,45,24,30.28,30.04,8,2,18,0.00
2014-1-18,49.5,37.0,22.0,29.3,22.1,16.5,81,56,41,30.19,29.81,13,3,27,0.00
2014-1-19,63.9,40.9,19.2,27.4,23.1,15.9,91,56,22,30.18,29.84,8,1,15,0.00
2014-1-20,51.9,35.3,15.3,31.5,22.2,5.3,90,62,33,30.44,29.90,13,2,23,0.00
2014-1-21,22.9,13.7,3.6,5.1,-2.5,-6.5,68,50,28,30.59,30.22,11,2,27,0.00
2014-1-22,38.8,25.6,8.4,19.9,9.8,-8.9,72,52,33,30.64,30.19,12,3,28,0.00
2014-1-23,17.2,7.3,1.6,-2.4,-5.7,-9.3,73,55,38,30.96,30.64,12,2,20,0.00
2014-1-24,49.3,28.4,5.3,24.3,7.9,-3.3,68,43,30,30.77,29.86,9,3,17,0.00
2014-1-25,49.3,41.2,29.0,34.4,27.5,20.4,77,59,37,30.09,29.77,10,2,20,0.00
2014-1-26,58.9,44.6,18.7,33.7,26.0,-6.4,86,50,29,30.31,29.69,15,4,29,0.00
2014-1-27,18.5,11.7,6.3,-3.5,-6.6,-9.7,61,43,33,30.62,30.31,11,2,21,0.00
2014-1-28,23.8,12.0,0.3,6.1,0.4,-6.7,83,61,41,30.62,30.41,6,1,12,0.00
2014-1-29,47.9,27.9,7.0,17.3,8.1,-0.3,75,48,20,30.41,29.87,7,2,13,0.00
2014-1-30,48.1,36.7,28.7,24.8,16.7,10.2,57,44,31,30.06,29.66,10,4,17,0.00
2014-1-31,28.6,22.5,20.2,18.9,15.2,9.3,92,75,53,30.15,29.97,9,3,14,0.00
2014-2-1,28.1,23.1,19.0,22.2,18.1,12.2,91,81,71,30.34,29.94,8,2,14,0.00
2014-2-2,23.4,15.2,6.4,12.3,6.5,2.9,89,69,50,30.50,30.34,8,1,12,0.00
2014-2-3,33.9,16.6,3.3,21.8,9.8,0.5,91,75,49,30.44,30.27,3,0,7,0.00
2014-2-4,28.4,22.2,11.6,21.8,19.0,8.9,93,88,75,30.32,30.08,11,3,20,0.00
2014-2-5,11.5,6.2,0.9,8.9,-0.9,-6.1,89,73,61,30.79,30.32,10,2,20,0.00
2014-2-6,10.6,3.8,-3.6,-1.8,-5.1,-8.7,79,67,50,30.80,30.58,4,0,7,0.00
2014-2-7,15.2,10.9,3.2,9.9,1.7,-3.0,79,66,55,30.58,30.31,3,1,6,0.00
2014-2-8,29.3,23.4,15.2,24.5,19.0,9.9,92,83,78,30.31,30.13,4,1,8,0.00
2014-2-9,26.1,18.9,11.3,24.1,13.7,4.3,92,80,72,30.53,30.23,8,3,14,0.00
2014-2-10,16.0,11.3,9.1,4.3,2.0,0.2,73,66,55,30.62,30.52,7,2,13,0.00
2014-2-11,23.5,13.9,7.8,6.7,2.6,-1.0,72,61,45,30.60,30.33,4,1,8,0.00
2014-2-12,32.8,24.5,12.2,24.1,16.5,3.6,85,71,64,30.33,30.02,6,1,12,0.00
2014-2-13,49.5,34.9,25.5,32.8,27.7,21.9,92,77,51,30.04,29.75,6,1,10,0.09
2014-2-14,43.9,31.6,18.3,35.3,25.3,16.1,93,78,64,30.19,29.62,8,2,14,0.01
2014-2-15,47.4,32.0,16.2,34.5,24.9,14.3,94,76,58,30.18,29.91,6,1,13,0.00
2014-2-16,41.2,32.2,23.2,32.2,27.6,21.5,95,83,68,30.23,29.89,7,1,12,0.00
2014-2-17,56.6,43.7,33.0,36.1,30.0,24.1,89,61,29,30.07,29.79,8,2,17,0.00
2014-2-18,68.9,52.5,36.9,34.3,29.6,26.6,73,44,25,30.00,29.73,10,2,18,0.00
2014-2-19,54.9,41.9,27.7,38.8,30.1,24.3,89,66,33,30.03,29.55,5,1,10,0.01
2014-2-20,47.9,41.3,34.0,42.9,33.7,17.5,95,76,43,29.91,29.33,12,3,24,0.48
2014-2-21,58.7,40.6,24.4,26.2,22.8,17.7,87,54,24,29.97,29.83,10,2,20,0.00
2014-2-22,55.9,37.7,23.7,36.4,26.6,20.8,90,67,33,30.17,29.92,12,2,17,0.00
2014-2-23,33.6,29.3,26.5,22.2,16.2,9.9,73,58,46,30.42,30.16,9,3,16,0.00
2014-2-24,39.9,31.0,26.1,19.5,14.6,10.0,69,51,35,30.42,30.19,6,1,10,0.00
2014-2-25,28.2,22.1,14.9,20.1,14.2,6.0,84,72,55,30.58,30.31,10,3,16,0.00
2014-2-26,31.2,19.6,5.0,17.2,8.3,0.3,86,62,42,30.58,30.09,7,2,16,0.00
2014-2-27,33.3,25.3,17.8,18.9,9.8,2.0,87,55,29,30.25,29.96,7,2,14,0.00
2014-2-28,51.2,35.8,23.3,34.6,21.3,3.9,78,56,40,30.12,29.83,11,2,20,0.00
2014-3-1,30.4,18.6,5.4,24.1,12.8,1.1,87,78,64,30.51,30.10,12,5,21,0.00
2014-3-2,6.7,3.7,2.2,1.7,-4.5,-9.0,85,69,56,30.69,30.48,13,5,21,0.00
2014-3-3,22.2,10.0,-2.6,8.3,-4.4,-13.1,71,53,29,30.70,30.36,10,1,15,0.00
2014-3-4,43.7,27.6,12.2,26.3,15.5,5.2,77,61,46,30.36,30.04,7,1,10,0.04
2014-3-5,41.1,32.0,27.0,29.9,26.1,23.3,89,79,61,30.35,30.12,8,2,12,0.00
2014-3-6,47.5,34.9,22.0,34.7,28.6,20.3,94,79,60,30.35,29.97,4,1,10,0.00
2014-3-7,64.0,45.5,32.8,40.9,34.8,27.0,88,69,36,30.13,29.83,12,3,18,0.00
2014-3-8,41.0,32.6,24.8,27.0,23.4,20.8,85,70,52,30.40,30.13,9,3,14,0.00
2014-3-9,65.3,43.4,21.2,32.4,26.3,18.7,92,57,24,30.39,29.99,8,2,16,0.00
2014-3-10,76.9,56.0,43.1,37.9,31.9,27.4,61,42,20,29.99,29.65,6,1,9,0.00
2014-3-11,78.2,54.0,38.7,50.6,38.5,29.9,83,58,36,30.04,29.42,16,4,29,0.00
2014-3-12,57.5,42.2,26.2,32.8,27.7,22.0,86,60,27,30.26,30.03,7,2,16,0.00
2014-3-13,71.5,50.3,26.0,30.3,24.2,15.4,87,45,13,30.16,29.81,10,2,16,0.00
2014-3-14,65.8,55.0,37.4,30.0,24.4,19.6,62,32,18,30.01,29.73,10,2,17,0.00
2014-3-15,74.5,53.1,32.3,52.2,34.9,23.2,85,53,28,30.00,29.76,14,2,22,0.13
2014-3-16,45.4,36.5,27.1,35.0,24.3,16.4,88,63,38,30.31,29.98,15,6,25,0.00
2014-3-17,56.6,38.8,22.4,31.5,23.9,17.1,82,58,32,30.15,29.59,7,2,15,0.00
2014-3-18,64.9,51.8,41.7,38.2,33.1,26.0,70,50,33,29.74,29.42,9,3,17,0.00
2014-3-19,56.9,43.1,34.7,32.5,28.4,25.2,89,59,30,31.22,29.75,7,3,14,0.01
2014-3-20,73.0,51.8,32.0,32.6,27.2,19.3,81,45,14,30.14,29.83,11,2,24,0.00
2014-3-21,65.2,53.4,43.2,35.2,30.9,24.8,61,44,24,30.19,29.75,13,3,20,0.00
2014-3-22,43.9,36.0,26.3,31.3,18.8,7.3,90,53,25,30.55,30.19,12,5,20,0.00
2014-3-23,42.4,30.3,18.4,24.2,17.9,14.0,92,63,34,30.61,30.35,6,1,12,0.04
2014-3-24,39.5,32.1,25.5,32.7,23.4,15.2,95,72,45,30.37,30.26,4,0,5,0.09
2014-3-25,44.2,32.6,24.8,25.1,18.7,11.2,95,61,27,30.50,30.26,10,2,17,0.02
2014-3-26,59.6,41.4,27.2,46.2,28.1,15.4,92,62,33,30.26,29.48,11,3,23,0.08
2014-3-27,73.7,53.6,39.1,55.8,43.4,30.5,90,70,35,29.88,29.34,14,5,22,0.00
2014-3-28,52.0,39.1,30.6,36.5,31.8,26.4,90,76,54,30.22,29.87,5,1,9,0.00
2014-3-29,60.5,44.2,28.4,34.2,31.7,26.5,95,65,34,30.38,30.19,5,1,9,0.00
2014-3-30,74.5,59.4,41.1,39.5,36.2,32.5,76,45,25,30.19,29.74,10,4,20,0.00
2014-3-31,78.8,63.2,36.5,49.8,36.8,19.1,58,39,14,30.04,29.55,13,6,22,0.00
2014-4-1,52.7,41.3,29.8,30.7,25.0,19.2,70,53,39,30.16,29.99,6,1,14,0.00
2014-4-2,51.3,47.5,43.4,50.2,43.2,30.3,97,87,48,30.01,29.71,8,2,12,0.27
2014-4-3,60.1,49.9,38.4,56.4,48.1,34.8,97,93,87,29.85,29.59,8,2,15,0.01
2014-4-4,50.1,40.9,31.5,34.8,31.2,27.8,87,69,47,30.22,29.85,9,3,20,0.00
2014-4-5,62.7,45.0,25.7,34.6,29.9,24.2,96,61,28,30.24,30.04,7,2,12,0.00
2014-4-6,63.5,53.9,46.1,39.3,35.8,31.4,74,51,33,30.07,29.84,4,1,8,0.00
2014-4-7,63.9,51.5,41.6,48.3,41.6,36.6,92,71,41,29.92,29.77,12,1,22,0.14
2014-4-8,61.3,50.6,38.9,39.0,31.4,18.9,77,52,21,30.14,29.92,10,2,20,0.00
2014-4-9,82.4,58.4,31.3,40.5,31.8,24.9,82,43,20,30.12,29.72,8,2,17,0.00
2014-4-10,68.6,61.8,45.5,45.5,36.8,25.8,64,41,23,30.00,29.65,14,4,22,0.00
2014-4-11,78.9,60.5,40.1,43.6,36.1,27.5,82,46,20,30.08,29.86,6,1,12,0.00
2014-4-12,84.0,71.2,56.0,62.7,57.3,43.8,87,63,44,29.86,29.46,10,3,20,0.00
2014-4-13,76.7,60.9,35.4,62.8,53.6,32.1,94,78,59,29.85,29.36,16,3,29,1.67
2014-4-14,46.8,37.2,30.5,32.3,25.5,18.4,92,65,37,30.24,29.85,13,4,21,0.01
2014-4-15,59.2,43.1,25.7,32.1,27.3,23.4,96,59,28,30.28,29.99,7,1,14,0.00
2014-4-16,70.4,55.4,45.0,40.5,32.6,29.5,64,44,26,30.11,29.82,11,4,20,0.00
2014-4-17,55.4,43.1,36.3,37.1,32.7,29.4,85,67,48,30.35,30.11,7,2,13,0.00
2014-4-18,71.3,51.5,30.4,44.9,38.5,28.9,96,66,36,30.37,30.13,5,1,10,0.00
2014-4-19,79.0,64.7,46.4,49.0,45.7,41.3,84,53,32,30.17,30.01,9,2,18,0.00
2014-4-20,80.0,67.5,57.5,58.9,54.0,46.3,91,63,43,30.06,29.93,6,1,12,0.00
2014-4-21,68.2,63.1,60.1,60.7,58.0,56.3,90,84,73,29.98,29.94,4,1,8,0.01
2014-4-22,74.2,65.8,57.6,39.3,36.1,32.4,49,35,23,30.03,29.95,8,1,8,0.00
2014-4-23,81.3,66.9,54.2,53.7,43.1,35.7,55,43,31,29.98,29.58,8,3,17,0.00
2014-4-24,72.9,60.9,45.5,60.8,52.7,43.3,95,76,51,29.86,29.50,11,2,16,2.03
2014-4-25,81.2,59.9,41.4,47.6,43.3,38.4,97,62,23,29.93,29.76,5,1,14,0.00
2014-4-26,78.8,70.5,59.5,61.1,51.7,42.6,61,52,41,29.79,29.49,10,3,18,0.00
2014-4-27,81.7,70.8,59.3,65.3,57.8,39.5,96,67,24,29.49,29.23,9,2,15,0.56
2014-4-28,64.1,54.8,48.0,60.0,45.3,40.1,89,71,59,29.45,29.24,8,2,15,0.00
2014-4-29,48.0,45.5,43.3,46.3,42.1,38.1,95,88,78,29.92,29.44,7,2,16,0.37
2014-4-30,56.8,48.5,40.9,40.9,35.9,29.8,89,64,37,30.04,29.92,10,2,18,0.00
2014-5-1,57.9,50.0,40.8,40.4,37.9,34.8,86,64,47,30.05,29.97,7,2,17,0.00
2014-5-2,73.8,55.3,35.2,41.6,37.4,32.3,97,58,24,30.05,29.82,6,1,13,0.00
2014-5-3,81.0,63.3,43.1,51.7,45.0,37.0,91,55,31,29.94,29.83,6,1,12,0.00
2014-5-4,91.1,69.5,48.0,56.0,50.4,45.8,94,57,23,29.88,29.61,4,1,8,0.00
2014-5-5,86.7,68.7,53.5,57.6,52.8,48.6,92,61,29,29.70,29.63,8,1,15,0.00
2014-5-6,89.1,74.2,56.7,65.1,59.0,50.6,89,61,41,29.68,29.46,7,2,14,0.00
2014-5-7,90.8,79.6,69.1,67.5,64.6,61.5,79,62,42,29.68,29.50,8,3,14,0.00
2014-5-8,83.8,72.7,63.0,65.5,61.3,44.9,80,68,45,29.77,29.61,6,1,13,0.01
2014-5-9,75.8,60.8,49.7,49.2,44.3,39.9,76,57,31,29.93,29.77,6,1,12,0.00
2014-5-10,86.9,67.6,50.4,67.3,57.5,47.3,95,73,42,29.86,29.64,7,1,17,0.02
2014-5-11,87.0,77.2,61.9,68.2,64.8,55.6,96,67,50,29.73,29.53,9,3,17,0.02
2014-5-12,77.9,61.9,49.1,69.3,57.3,43.4,96,85,69,30.08,29.60,7,2,17,0.79
2014-5-13,63.5,54.2,48.2,43.9,40.9,36.1,84,63,37,30.28,30.09,9,2,15,0.00
2014-5-14,68.5,55.0,43.9,44.6,39.6,31.9,92,61,29,30.31,30.11,5,0,10,0.00
2014-5-15,61.1,52.8,45.1,42.9,33.5,27.8,85,50,30,30.21,30.11,9,2,16,0.00
2014-5-16,60.8,46.4,32.2,45.2,35.9,28.7,96,71,33,30.18,30.10,5,0,7,0.06
2014-5-17,64.9,50.9,35.2,45.2,39.2,33.3,98,69,33,30.23,30.15,10,0,14,0.00
2014-5-18,74.3,58.6,38.0,54.7,46.6,36.7,97,68,43,30.19,29.92,6,1,13,0.00
2014-5-19,85.3,72.2,60.8,65.3,60.5,55.0,87,68,49,29.94,29.64,8,2,17,0.00
2014-5-20,89.8,77.9,64.1,68.3,64.6,60.6,90,65,45,29.78,29.69,5,1,12,0.00
2014-5-21,88.5,78.1,64.5,69.6,66.0,60.6,89,67,50,29.97,29.75,4,0,8,0.00
2014-5-22,76.1,70.5,62.3,69.1,62.5,54.9,93,77,54,30.12,29.96,9,1,18,0.20
2014-5-23,78.8,68.5,60.5,66.9,61.6,55.1,96,79,64,30.12,30.03,4,0,8,0.08
2014-5-24,74.0,67.6,62.6,68.5,65.0,61.3,97,92,82,30.07,29.94,3,0,8,0.68
2014-5-25,86.3,73.9,65.1,72.9,66.9,62.3,97,81,56,29.98,29.85,4,1,9,0.00
2014-5-26,82.5,72.4,65.3,70.8,66.8,63.4,97,84,61,29.99,29.90,3,0,5,0.02
2014-5-27,86.5,72.8,60.7,68.9,64.4,59.3,97,77,48,29.98,29.86,4,0,5,0.00
2014-5-28,89.8,75.5,64.8,70.1,65.6,60.3,97,74,39,29.96,29.86,6,1,12,0.00
2014-5-29,89.5,75.9,62.5,70.0,65.9,61.3,98,74,45,29.95,29.85,6,1,12,0.00
2014-5-30,88.2,76.4,65.4,69.5,66.1,63.8,97,73,46,30.01,29.91,4,0,8,0.00
2014-5-31,87.3,76.5,67.1,70.2,67.1,64.6,93,74,51,30.02,29.88,3,0,6,0.00
2014-6-1,85.7,75.5,64.0,72.0,68.2,62.4,95,79,59,29.93,29.69,11,1,27,0.94
2014-6-2,88.7,73.5,62.4,72.0,67.0,61.5,98,82,55,29.95,29.74,4,0,8,0.33
2014-6-3,90.3,77.0,67.8,75.7,71.1,66.6,98,84,56,29.95,29.80,3,0,6,0.00
2014-7-21,97.5,90.8,81.3,77.4,75.8,71.8,82,62,45,29.92,29.86,4,1,16,0.00
2014-7-22,102.0,89.2,77.0,79.8,74.5,66.6,91,67,35,30.02,29.90,9,1,13,0.02
2014-7-23,89.0,81.0,73.1,77.8,67.9,60.4,82,67,42,30.13,30.02,9,2,13,0.00
2014-7-24,88.4,76.3,63.9,66.6,64.0,61.6,94,68,43,30.10,29.91,3,1,6,0.00
2014-7-25,101.5,88.4,74.1,74.7,70.3,60.4,85,58,36,29.91,29.69,5,1,12,0.00
2014-7-26,97.5,85.4,80.3,75.0,71.7,67.8,80,65,40,29.81,29.70,4,1,9,0.02
2014-7-27,90.1,81.6,55.4,88.0,64.3,24.4,95,61,29,30.10,29.81,7,2,15,0.00
2014-7-28,83.2,71.0,60.4,61.0,58.6,52.6,90,67,43,30.23,30.10,7,1,13,0.00
2014-7-29,83.9,72.3,58.6,62.2,59.0,56.1,93,66,44,30.17,30.04,6,0,8,0.00
2014-7-30,80.0,72.5,60.8,62.8,59.9,56.7,89,66,45,30.11,30.04,3,0,7,0.00
2014-7-31,88.4,71.3,55.5,61.5,56.8,52.5,98,66,32,30.11,29.99,3,0,7,0.00
2014-8-1,90.7,80.4,65.1,65.9,62.7,59.1,81,57,38,30.04,29.96,2,0,8,0.00
2014-8-2,93.3,79.1,65.4,67.9,63.6,60.3,92,63,35,30.10,30.00,5,0,6,0.00
2014-8-3,92.3,76.4,67.2,69.5,65.0,61.5,89,69,43,30.16,29.96,7,1,12,0.00
2014-8-4,96.4,82.8,71.2,70.0,65.6,62.6,83,60,33,30.02,29.90,4,1,13,0.12
2014-8-5,98.2,83.0,69.7,69.6,67.3,64.9,90,63,35,30.03,29.91,3,0,5,0.00
2014-8-6,90.8,76.0,68.1,73.3,69.0,65.2,96,80,54,29.94,29.75,12,1,20,1.38
2014-8-7,84.9,74.6,69.0,72.7,70.1,68.1,97,87,63,29.90,29.82,4,0,6,0.04
2014-8-8,85.3,75.0,68.3,72.8,69.6,67.2,97,84,63,29.98,29.89,8,1,12,0.00
2014-8-9,87.7,76.6,67.8,74.6,70.2,66.6,97,82,62,30.01,29.91,4,0,10,0.00
2014-8-10,84.0,74.1,67.8,71.6,68.8,66.2,97,84,60,30.02,29.90,9,1,15,0.98
2014-8-11,82.9,73.4,65.2,70.8,62.9,55.1,98,73,43,30.09,30.00,8,2,15,0.00
2014-8-12,80.7,69.2,55.9,60.3,56.2,52.1,96,66,40,30.13,30.04,8,1,13,0.00
2014-8-13,85.8,69.5,54.3,61.3,56.7,49.6,98,69,30,30.15,30.03,6,0,9,0.00
2014-8-14,89.7,74.1,58.5,89.0,62.4,57.4,100,70,42,30.08,29.92,3,0,4,0.00
2014-8-15,86.3,77.2,70.2,74.5,68.8,62.6,94,76,59,29.94,29.75,4,0,7,0.06
2014-8-16,84.2,75.9,69.2,73.2,70.2,66.5,97,83,62,29.87,29.74,7,1,12,0.05
2014-8-17,88.3,75.2,63.7,72.2,67.9,62.8,98,80,51,29.96,29.83,6,1,10,0.00
2014-8-18,95.9,79.4,64.8,70.0,66.6,62.8,95,68,38,29.99,29.72,4,0,8,0.00
2014-8-19,90.1,83.1,71.6,73.2,70.5,62.2,91,67,56,29.80,29.61,5,1,10,0.09
2014-8-20,79.1,75.7,72.5,70.3,69.5,68.3,88,81,71,29.81,29.75,2,0,12,0.00
2014-8-21,99.5,89.7,74.8,74.9,69.0,52.7,85,52,35,29.91,29.75,5,1,12,0.02
2014-8-22,94.6,85.9,78.2,74.5,72.3,70.7,81,65,49,29.89,29.81,3,0,7,0.00
2014-8-23,100.4,87.1,74.9,72.6,66.1,49.6,79,54,24,29.86,29.74,4,1,12,0.00
2014-8-24,99.5,88.5,77.5,69.3,66.9,61.1,69,51,34,29.85,29.75,4,1,12,0.00
2014-8-25,86.8,80.7,71.3,75.3,71.7,67.2,96,75,53,29.93,29.82,11,0,17,0.98
2014-8-26,94.8,80.6,70.5,73.7,69.5,65.7,95,71,43,30.11,29.91,6,1,12,0.09
2014-8-27,87.8,80.0,73.1,74.5,72.6,68.0,96,79,62,30.07,29.95,6,1,8,0.00
2014-8-28,95.3,83.8,75.2,74.0,69.4,63.2,88,65,37,29.96,29.76,3,0,12,0.00
2014-8-29,90.7,76.8,70.7,70.4,67.4,63.8,96,74,45,29.83,29.71,5,0,12,0.05
2014-8-30,92.2,77.6,65.7,70.8,66.8,61.5,98,73,37,29.91,29.81,4,0,7,0.01
2014-8-31,96.1,80.4,66.7,73.1,67.8,64.4,95,69,38,29.84,29.59,6,1,17,1.20
2014-9-1,80.8,72.1,65.3,70.7,67.3,63.8,97,86,67,29.87,29.68,8,1,12,1.33
2014-9-2,88.3,74.8,66.4,73.5,68.9,65.8,98,84,54,29.98,29.83,3,0,5,0.01
2014-9-3,90.5,78.2,68.1,77.7,71.1,65.0,96,80,65,29.93,29.73,5,1,12,2.21
2014-9-4,95.3,84.6,76.0,74.0,70.4,67.2,82,64,41,29.88,29.77,6,1,15,0.00
2014-9-5,80.2,70.3,62.8,71.4,62.8,57.1,91,77,70,30.21,29.88,8,2,14,0.10
2014-9-6,75.0,64.5,55.0,59.4,54.6,50.6,95,73,44,30.27,30.18,7,1,12,0.00
2014-9-7,80.2,64.2,49.7,58.8,54.3,48.9,98,74,40,30.21,30.03,4,0,6,0.00
2014-9-8,86.3,71.9,54.7,71.2,63.9,53.6,97,77,58,30.05,29.82,4,1,9,0.00
2014-9-9,92.7,82.2,73.7,76.0,71.7,69.0,88,72,52,29.84,29.47,6,1,13,0.00
2014-9-10,83.9,69.6,61.1,72.9,65.2,54.9,97,86,65,30.02,29.47,8,2,14,0.36
2014-9-11,62.8,58.0,52.8,55.4,52.5,50.2,95,82,71,30.27,30.02,8,2,17,0.03
2014-9-12,57.0,51.4,42.1,52.2,47.8,40.8,96,87,77,30.44,30.24,8,2,16,0.02
2014-9-13,65.0,49.8,35.5,48.4,42.2,34.7,98,78,45,30.45,30.24,4,0,6,0.00
2014-9-14,74.2,62.8,47.0,59.9,52.9,45.3,97,72,51,30.27,30.02,4,0,7,0.00
2014-9-15,71.4,65.4,52.6,65.9,60.1,50.6,94,84,67,30.24,29.99,8,1,16,0.00
2014-9-16,74.3,59.3,43.5,59.5,51.7,42.6,98,78,50,30.25,29.99,4,0,7,0.00
2014-9-17,77.0,68.2,62.7,70.0,64.8,59.2,97,89,77,29.99,29.85,5,0,7,0.04
2014-9-18,71.6,65.7,61.6,65.7,63.2,60.4,98,92,80,30.00,29.89,4,1,9,0.00
2014-9-19,82.3,69.5,61.6,72.1,65.9,60.7,98,89,68,30.00,29.88,4,0,10,0.01
2014-9-20,89.4,73.8,66.2,73.5,68.9,65.2,98,86,54,29.98,29.85,4,0,12,0.00
2014-9-21,76.2,66.3,54.5,65.8,54.3,45.5,98,70,35,30.24,29.97,9,1,16,0.01
2014-9-22,76.4,60.1,45.0,55.5,51.2,44.2,98,76,46,30.33,30.18,4,0,6,0.00
2014-9-23,75.5,63.4,53.6,61.2,55.5,51.0,93,77,48,30.23,30.07,5,0,9,0.05
2014-9-24,75.8,65.9,59.4,61.2,58.1,54.2,92,77,59,30.18,30.10,3,0,9,0.01
2014-9-25,86.0,71.9,58.5,62.9,59.3,55.5,90,67,43,30.17,30.07,3,0,5,0.00
2014-9-26,83.5,70.3,58.1,64.0,59.7,56.4,95,72,44,30.14,30.04,5,0,9,0.00
2014-9-27,71.9,65.7,54.1,62.9,59.9,53.3,98,82,72,30.12,30.08,2,0,4,0.00
2014-9-28,85.5,72.9,57.6,63.6,60.4,54.3,94,67,37,30.13,30.02,3,0,5,0.00
2014-9-29,85.7,68.5,53.2,65.7,58.9,52.3,98,75,39,30.07,29.91,3,0,7,0.00
2014-9-30,83.7,72.1,58.9,65.1,60.8,57.3,96,71,45,29.93,29.70,5,1,13,0.00
2014-10-1,83.7,73.0,64.6,70.4,66.1,62.1,96,80,59,29.76,29.61,9,1,15,0.33
2014-10-2,68.2,63.7,54.0,66.1,61.1,52.0,98,92,80,29.89,29.66,7,1,15,0.19
2014-10-3,58.0,51.2,40.5,52.6,40.7,31.6,97,70,38,30.21,29.88,9,2,18,0.16
2014-10-4,61.6,47.5,34.7,41.5,35.3,28.8,93,66,33,30.14,29.87,7,1,12,0.00
2014-10-5,75.3,58.0,39.6,53.6,45.7,38.6,97,68,35,29.87,29.74,8,1,17,0.02
2014-10-6,75.1,60.6,50.1,58.7,50.5,44.5,97,74,35,29.82,29.68,4,1,9,0.08
2014-10-7,80.1,63.4,52.3,59.2,52.7,49.1,97,73,35,30.01,29.67,8,1,12,0.00
2014-10-8,75.3,60.9,46.3,54.9,49.5,45.5,98,70,37,30.11,29.94,5,1,10,0.00
2014-10-9,68.5,61.2,53.8,63.9,57.5,52.1,96,88,68,30.06,29.89,8,2,14,1.46
2014-10-10,54.9,51.3,47.7,53.4,46.7,43.1,96,85,72,30.20,30.02,8,2,15,0.25
2014-10-11,62.3,50.3,37.4,48.1,42.7,36.4,97,77,48,30.25,30.03,4,1,7,0.00
2014-10-12,59.3,55.1,51.0,54.5,51.3,47.3,93,87,81,30.03,29.70,3,0,5,0.00
2014-10-13,56.6,54.7,52.6,54.6,52.6,47.5,97,93,72,29.75,29.58,7,2,16,1.27
2014-10-14,66.9,58.0,50.4,48.0,43.0,37.3,75,59,34,29.99,29.72,12,3,27,0.00
2014-10-15,69.1,51.9,38.3,48.7,41.6,36.7,95,72,35,30.09,29.91,3,0,8,0.00
2014-10-16,78.8,58.3,41.5,55.4,48.6,40.4,97,75,40,29.92,29.72,3,0,8,0.00
2014-10-17,67.6,55.1,44.1,49.4,46.0,42.2,96,73,47,30.13,29.85,7,1,12,0.00
2014-10-18,61.1,48.6,39.6,46.9,42.9,38.5,97,82,56,30.27,30.13,5,0,9,0.00
2014-10-19,71.0,53.2,37.1,51.9,45.6,36.3,98,79,44,30.20,30.00,3,0,9,0.00
2014-10-20,74.3,57.2,44.3,56.2,49.3,43.5,98,79,36,30.08,30.00,4,0,6,0.00
2014-10-21,74.9,56.2,38.2,54.4,44.6,37.4,98,71,32,30.14,30.03,3,0,5,0.01
2014-10-22,77.8,65.3,52.3,61.2,54.3,46.3,84,68,51,30.15,30.02,4,1,9,0.00
2014-10-23,72.2,63.6,58.1,64.2,60.8,57.3,97,91,74,30.09,29.99,3,0,5,1.42
2014-10-24,78.6,65.2,56.0,67.1,60.7,55.2,98,87,65,30.05,29.90,3,0,5,0.11
2014-10-28,64.1,52.7,40.7,42.4,37.9,32.8,95,62,32,30.17,30.04,3,0,14,0.00
2014-10-29,62.4,46.4,32.3,40.6,36.5,31.5,98,73,35,30.30,30.08,4,0,8,0.00
2014-10-30,68.5,56.5,45.5,44.6,41.7,39.7,85,60,36,30.27,29.99,12,2,20,0.00
2014-10-31,48.9,39.0,25.9,41.9,26.2,17.4,90,62,33,30.55,30.27,15,3,21,0.00
2014-11-1,49.1,30.0,20.7,26.7,22.9,19.2,95,80,39,30.51,30.24,5,0,12,0.00
2014-11-2,63.4,53.3,46.4,42.5,35.7,26.3,64,52,42,30.24,29.98,14,2,20,0.00
2014-11-3,68.4,58.0,49.9,57.8,48.5,39.9,94,71,58,30.08,29.89,7,2,17,0.06
2014-11-4,52.4,46.5,40.1,42.5,40.1,37.3,91,79,63,30.24,30.08,4,0,12,0.00
2014-11-5,70.0,50.1,31.8,39.8,36.2,30.8,97,65,26,30.21,30.05,6,1,12,0.00
2014-11-6,53.0,44.3,31.2,36.6,32.0,28.8,91,63,40,30.42,30.22,7,1,13,0.00
2014-11-7,67.2,49.8,30.6,44.3,35.8,28.3,92,63,35,30.32,29.81,7,1,14,0.00
2014-11-8,57.8,46.1,32.5,42.7,33.2,29.0,90,62,39,30.25,29.97,6,2,13,0.00
2014-11-9,68.8,51.9,34.1,44.1,37.7,29.5,84,60,38,30.07,29.61,4,1,10,0.00
2014-11-10,72.2,52.3,32.3,49.4,40.7,24.3,79,66,43,29.95,29.35,10,2,21,0.00
2014-11-11,33.4,27.5,22.3,24.2,15.8,11.2,81,62,40,30.50,29.94,9,3,19,0.00
2014-11-12,27.0,22.1,18.1,12.8,7.9,2.9,69,55,38,30.65,30.50,6,2,14,0.00
2014-11-13,31.2,21.6,12.8,14.9,11.1,8.4,84,65,45,30.70,30.57,8,1,13,0.00
2014-11-14,33.6,22.9,11.3,15.7,11.7,8.0,89,64,37,30.58,30.38,3,0,6,0.00
2014-11-15,31.3,28.6,23.6,26.6,21.1,13.4,88,74,61,30.38,30.16,3,0,6,0.00
2014-11-16,30.2,19.9,14.5,26.5,12.8,8.2,88,74,52,30.33,30.18,5,1,12,0.00
2014-11-17,25.6,19.3,9.2,13.3,7.9,3.1,78,62,41,30.44,30.26,10,2,21,0.00
2014-11-18,41.9,24.3,6.6,27.1,12.6,2.9,90,64,31,30.43,29.98,3,1,6,0.00
2014-11-19,40.5,32.6,18.5,28.1,21.5,13.9,84,65,41,30.27,29.99,6,1,14,0.00
2014-11-20,40.0,26.5,13.8,22.7,18.0,11.7,93,72,49,30.33,30.23,5,0,8,0.00
2014-11-21,43.4,32.2,20.0,42.3,28.6,16.4,96,87,67,30.33,30.06,3,0,7,0.05
2014-11-22,59.5,51.5,41.3,56.7,49.7,40.2,98,94,87,30.08,29.65,5,1,10,0.01
2014-11-23,56.9,50.1,41.2,55.7,47.5,29.6,97,91,62,29.65,29.35,9,2,22,0.47
2014-11-24,42.7,35.7,28.4,29.9,23.7,13.4,80,62,45,30.19,29.57,10,2,17,0.00
2014-11-25,47.0,34.5,19.2,26.6,19.5,12.6,78,55,39,30.29,29.98,3,1,6,0.00
2014-11-26,44.8,37.1,26.9,37.0,28.0,20.6,90,70,54,30.52,29.93,11,2,18,0.02
2014-11-27,39.4,30.5,22.2,24.9,21.8,18.7,87,71,50,30.61,30.25,4,1,9,0.00
2014-11-28,66.3,47.9,33.5,41.5,32.8,24.8,72,57,34,30.25,29.71,5,1,9,0.00
2014-11-29,67.0,52.1,39.5,47.1,41.7,35.1,93,70,39,29.71,29.54,5,1,12,0.00
2014-11-30,53.7,30.3,20.5,42.9,19.9,6.7,87,66,49,30.55,29.57,10,4,18,0.00
2014-12-1,27.7,20.8,14.9,8.4,4.6,1.4,70,50,34,30.79,30.55,10,2,17,0.00
2014-12-2,43.3,28.9,16.6,18.7,13.3,7.3,74,54,33,30.55,30.11,5,1,12,0.00
2014-12-3,43.5,33.4,21.1,20.3,18.3,16.6,85,56,34,30.44,30.20,5,1,9,0.00
2014-12-4,41.4,38.3,35.3,39.4,31.6,20.0,93,78,53,30.29,30.11,4,1,6,0.00
2014-12-5,46.5,42.6,40.0,45.1,41.6,39.0,97,96,93,30.35,30.07,4,1,10,1.52
2014-12-6,41.7,38.0,34.9,41.0,36.6,33.5,98,95,91,30.59,30.35,5,1,9,0.00
2014-12-7,43.5,38.9,34.0,42.7,37.8,32.7,97,96,94,30.56,30.25,4,1,9,0.03
2014-12-8,53.9,44.3,36.4,43.3,37.8,31.0,98,79,52,30.36,30.22,9,1,14,0.00
2014-12-9,37.7,31.1,26.9,30.8,26.3,23.2,91,82,73,30.51,30.36,5,1,12,0.00
2014-12-10,34.4,31.7,26.4,33.0,29.6,24.8,96,92,88,30.41,30.26,2,0,5,0.02
2014-12-11,39.3,36.8,33.7,38.3,35.6,32.7,97,95,93,30.31,30.25,1,0,4,0.01
2014-12-12,53.0,46.1,39.3,48.6,43.9,38.3,97,92,84,30.33,30.23,3,1,6,0.00
2014-12-13,56.0,51.8,49.0,53.7,50.1,47.3,97,94,91,30.23,29.96,4,1,10,0.00
2014-12-14,60.7,56.6,49.0,55.5,53.6,47.6,95,90,82,29.96,29.68,8,2,14,1.09
2014-12-15,53.0,42.6,30.8,51.0,40.1,25.8,96,91,81,30.06,29.51,9,3,22,0.42
2014-12-16,31.8,29.2,25.7,26.0,23.6,21.7,85,79,73,30.43,30.06,7,2,20,0.00
2014-12-17,29.9,26.7,23.3,26.0,21.7,18.2,94,81,76,30.43,30.28,5,1,6,0.00
2014-12-18,33.1,30.4,27.5,30.8,28.5,26.0,95,92,89,30.33,30.24,2,0,4,0.02
2014-12-19,32.6,31.0,28.8,29.9,28.8,27.4,95,92,87,30.36,30.25,3,0,4,0.00
2014-12-20,49.2,38.8,31.7,41.9,35.2,29.9,94,87,75,30.26,30.12,4,1,7,0.27
2014-12-21,45.0,41.3,35.1,42.4,39.0,33.1,95,91,88,30.12,29.73,5,1,10,0.03
2014-12-22,48.4,44.0,38.1,46.2,41.5,34.8,97,91,81,29.73,29.46,7,1,10,0.15
2014-12-23,40.9,37.6,31.8,36.1,33.4,29.5,94,85,77,29.93,29.60,7,1,15,0.02
2014-12-24,35.7,33.9,28.7,33.5,31.0,26.8,95,89,82,29.95,29.83,6,1,12,0.06
2014-12-25,54.0,42.7,30.6,33.2,30.8,27.7,92,65,43,29.84,29.66,9,2,18,0.00
2014-12-26,46.0,38.8,34.4,34.8,33.3,31.5,94,81,60,30.11,29.79,5,1,10,0.00
2014-12-27,34.3,28.9,19.2,32.5,22.9,16.7,94,79,58,30.35,30.10,7,2,16,0.00
2014-12-28,40.3,26.8,13.7,24.2,19.8,12.0,94,77,49,30.34,30.18,3,0,7,0.00
2014-12-29,41.5,29.3,18.1,27.6,22.3,15.8,94,77,42,30.62,30.25,12,2,20,0.00
2014-12-30,21.5,13.8,8.2,16.0,2.9,-2.3,79,62,45,30.90,30.62,9,3,18,0.00
2014-12-31,21.5,12.8,4.2,9.1,1.5,-3.9,76,61,36,30.88,30.45,5,1,10,0.00
2015-1-1,35.5,26.2,15.6,23.8,15.5,9.0,83,65,43,30.45,30.21,6,1,12,0.00
2015-1-2,38.1,33.3,29.6,30.0,27.5,23.7,91,79,66,30.30,30.06,3,0,6,0.00